Total_Precipitation_Accumulation
2.06 2.45 3.10 4.08 4.47 5.12 5.11 4.72 4.36 4.18 4.10 4.02 4.00 4.02 4.12 4.28 4.40 4.34 4.05 3.95 3.87 3.88 4.05 3.92 3.86 3.66 3.59 3.65 3.60 3.45 3.36 3.20 3.13 3.02 2.65 2.18 1.77 1.64 1.56 1.63 1.69 1.64 1.59
2.18 2.80 3.28 3.77 4.03 4.19 4.44 4.78 4.75 4.66 4.37 4.27 4.52 4.94 5.17 5.08 5.12 5.06 4.94 4.74 4.56 4.51 4.40 4.31 4.04 3.83 3.67 3.50 3.42 3.33 3.23 3.03 3.02 3.05 2.95 2.53 2.17 1.77 1.42 1.57 1.62 1.60 1.66
1.93 2.58 3.11 3.50 3.94 4.22 4.27 4.55 4.67 4.83 5.00 5.12 5.28 5.70 5.98 5.83 5.57 5.18 4.99 4.81 4.51 4.38 4.23 4.12 3.93 3.80 3.63 3.44 3.39 3.33 3.25 3.10 3.07 3.09 3.19 2.96 2.45 1.97 1.64 1.53 1.55 1.62 1.69
1.91 2.28 2.72 3.00 3.37 3.65 3.92 4.25 4.45 4.66 5.16 5.85 6.15 6.17 6.22 6.05 5.72 5.37 5.05 4.70 4.37 4.10 3.94 3.94 3.84 3.67 3.48 3.33 3.09 3.04 3.13 3.23 3.08 2.97 2.77 2.63 2.40 2.26 2.00 1.76 1.65 1.62 1.62
1.88 2.05 2.13 2.47 2.93 3.17 3.39 3.78 4.19 4.66 5.29 5.83 6.14 6.35 6.25 6.00 5.70 5.24 4.89 4.51 4.18 3.83 3.59 3.55 3.45 3.26 3.07 2.95 2.81 2.74 2.80 2.90 2.89 2.84 2.72 2.62 2.46 2.24 2.12 1.95 1.80 1.75 1.64
1.74 1.83 1.98 2.19 2.48 2.78 3.02 3.23 3.79 4.50 4.93 5.30 5.62 5.79 5.86 5.73 5.42 4.94 4.64 4.31 3.96 3.63 3.35 3.05 2.97 2.91 2.72 2.47 2.41 2.41 2.39 2.47 2.54 2.61 2.55 2.40 2.32 2.22 2.21 2.10 1.94 1.89 1.78
1.59 1.82 1.95 2.15 2.37 2.63 2.95 3.25 3.65 4.19 4.48 4.58 4.74 5.01 5.16 5.12 5.00 4.78 4.48 4.09 3.60 3.15 2.89 2.66 2.55 2.46 2.37 2.22 2.14 2.13 2.01 1.99 2.05 2.07 2.20 2.21 2.10 2.00 2.06 2.17 2.09 1.93 1.80
1.74 1.82 1.89 2.06 2.34 2.52 2.66 3.00 3.25 3.77 4.03 3.90 3.98 4.24 4.45 4.42 4.29 4.07 3.64 3.27 2.92 2.62 2.40 2.30 2.14 1.93 1.77 1.70 1.73 1.78 1.75 1.73 1.73 1.70 1.88 1.98 1.96 1.93 1.92 1.97 2.16 2.13 1.90
1.74 1.84 1.82 1.93 2.11 2.29 2.44 2.57 2.72 3.10 3.38 3.32 3.34 3.40 3.42 3.43 3.33 3.14 2.83 2.53 2.26 2.01 1.92 1.86 1.83 1.72 1.60 1.51 1.48 1.52 1.61 1.61 1.55 1.54 1.64 1.69 1.67 1.70 1.75 1.82 1.97 2.16 2.06
1.61 1.72 1.79 1.85 1.74 1.79 2.06 2.27 2.29 2.40 2.54 2.56 2.59 2.62 2.66 2.74 2.65 2.37 2.11 1.98 1.87 1.70 1.58 1.53 1.51 1.52 1.48 1.45 1.50 1.49 1.51 1.57 1.48 1.42 1.41 1.40 1.36 1.42 1.46 1.57 1.69 1.87 2.00
1.57 1.67 1.77 1.80 1.63 1.51 1.60 1.86 2.02 1.99 2.06 2.19 2.26 2.19 2.16 2.09 2.01 1.87 1.70 1.66 1.60 1.49 1.41 1.36 1.32 1.30 1.33 1.33 1.36 1.34 1.29 1.25 1.21 1.18 1.16 1.18 1.24 1.32 1.32 1.36 1.49 1.70 1.90
1.70 1.72 1.87 1.79 1.66 1.62 1.63 1.68 1.78 1.81 1.79 1.80 1.96 2.03 1.94 1.77 1.67 1.60 1.53 1.44 1.38 1.33 1.29 1.19 1.14 1.11 1.09 1.08 1.08 1.11 1.12 1.11 1.06 1.07 1.13 1.13 1.16 1.22 1.29 1.34 1.40 1.54 1.79
1.98 1.90 1.86 1.75 1.69 1.69 1.61 1.50 1.53 1.59 1.59 1.58 1.61 1.62 1.56 1.49 1.42 1.41 1.41 1.32 1.26 1.20 1.13 1.10 1.08 1.03 1.01 0.96 0.93 0.96 1.03 1.03 0.98 1.01 1.07 1.13 1.27 1.25 1.27 1.33 1.37 1.48 1.62
2.06 1.99 1.90 1.83 1.73 1.69 1.57 1.47 1.44 1.37 1.30 1.33 1.36 1.35 1.37 1.36 1.31 1.23 1.23 1.22 1.20 1.15 1.10 1.09 1.02 0.97 0.93 0.92 0.90 0.91 0.95 0.96 0.96 1.00 1.07 1.12 1.25 1.32 1.37 1.37 1.41 1.48 1.62
2.14 2.07 2.11 2.02 1.92 1.85 1.69 1.55 1.43 1.37 1.31 1.27 1.21 1.24 1.31 1.33 1.29 1.28 1.26 1.21 1.14 1.07 1.06 1.06 1.00 0.95 0.89 0.85 0.85 0.85 0.88 0.97 0.99 0.97 0.97 1.01 1.13 1.24 1.22 1.15 1.20 1.38 1.61
2.22 2.25 2.36 2.32 2.23 2.14 1.92 1.69 1.53 1.39 1.30 1.28 1.24 1.24 1.26 1.23 1.22 1.23 1.20 1.16 1.12 1.10 1.06 1.03 0.99 0.93 0.77 0.80 0.83 0.82 0.87 0.92 0.94 0.94 0.93 0.87 0.87 0.87 0.89 0.93 1.00 1.15 1.43
2.53 2.58 2.53 2.48 2.38 2.27 2.23 2.06 1.78 1.59 1.51 1.41 1.30 1.26 1.23 1.16 1.12 1.04 1.03 1.10 1.11 1.08 1.02 0.95 0.95 0.93 0.84 0.78 0.73 0.77 0.84 0.91 0.97 1.01 0.98 0.78 0.68 0.79 0.85 0.90 0.95 1.07 1.25
2.40 2.46 2.41 2.43 2.35 2.24 2.17 2.07 1.87 1.69 1.50 1.37 1.25 1.19 1.17 1.11 1.10 1.08 1.08 1.09 1.08 1.04 1.05 1.01 0.99 0.99 0.87 0.77 0.70 0.73 0.79 0.90 0.93 0.94 0.96 0.97 0.88 0.84 0.93 0.99 1.06 1.17 1.30
2.26 2.31 2.38 2.40 2.37 2.26 2.08 1.94 1.84 1.72 1.57 1.38 1.19 1.08 1.05 1.00 1.00 1.03 1.05 1.02 1.02 0.99 0.96 0.96 0.97 1.03 0.96 0.83 0.73 0.68 0.74 0.84 0.85 0.82 0.82 0.82 0.83 0.92 1.10 1.21 1.39 1.50 1.60
2.20 2.30 2.41 2.45 2.39 2.27 1.97 1.82 1.70 1.57 1.40 1.18 1.05 0.99 0.98 0.91 0.91 0.94 0.94 0.92 0.92 0.93 0.90 0.89 0.93 0.96 0.88 0.74 0.62 0.59 0.65 0.78 0.82 0.86 0.83 0.77 0.72 0.85 1.03 1.27 1.57 1.71 1.77
2.17 2.25 2.28 2.28 2.23 2.13 1.87 1.76 1.60 1.45 1.19 0.98 0.92 0.94 0.92 0.84 0.80 0.83 0.85 0.87 0.83 0.86 0.88 0.85 0.85 0.80 0.68 0.60 0.51 0.50 0.55 0.66 0.77 0.84 0.89 0.86 0.79 0.84 1.06 1.27 1.47 1.64 1.68
1.96 2.07 2.13 2.13 2.01 1.87 1.70 1.59 1.45 1.22 1.01 0.89 0.86 0.90 0.92 0.69 0.60 0.70 0.73 0.76 0.84 0.85 0.86 0.85 0.78 0.66 0.60 0.50 0.47 0.47 0.48 0.52 0.69 0.87 0.89 0.88 0.85 0.90 1.11 1.26 1.51 1.74 1.82
1.69 1.75 1.68 1.60 1.63 1.57 1.44 1.32 1.19 1.02 0.90 0.86 0.87 0.85 0.83 0.74 0.66 0.68 0.69 0.73 0.79 0.78 0.76 0.76 0.71 0.60 0.57 0.51 0.45 0.47 0.50 0.53 0.61 0.77 0.85 0.86 0.86 0.99 1.29 1.47 1.65 1.83 1.95
1.34 1.38 1.37 1.29 1.27 1.25 1.17 1.07 0.93 0.88 0.87 0.87 0.87 0.86 0.82 0.74 0.69 0.70 0.64 0.65 0.67 0.66 0.64 0.65 0.66 0.62 0.59 0.52 0.48 0.52 0.57 0.61 0.64 0.75 0.89 0.98 1.01 1.16 1.46 1.68 1.87 1.94 1.87
1.07 1.08 1.15 1.13 0.99 0.93 0.92 0.89 0.80 0.77 0.83 0.85 0.81 0.79 0.70 0.67 0.67 0.62 0.51 0.48 0.46 0.47 0.53 0.59 0.58 0.56 0.53 0.49 0.51 0.52 0.53 0.58 0.60 0.69 0.89 1.07 1.18 1.34 1.53 1.72 1.80 1.79 1.69
0.94 0.99 1.02 0.96 0.88 0.82 0.78 0.73 0.64 0.65 0.76 0.79 0.76 0.69 0.63 0.59 0.56 0.59 0.51 0.42 0.39 0.37 0.36 0.39 0.39 0.41 0.46 0.48 0.49 0.49 0.51 0.55 0.61 0.69 0.91 1.06 1.15 1.31 1.52 1.66 1.63 1.55 1.48